sat.trackr.live / text

‹ back to catalog

STARLINK-11530 [DTC]

NORAD 62562 · 2025-006J

PAYLOAD ACTIVE UNKNOWN

§ Identity

Operator
Country
US
Launch date
2025-01-10
Launch site
AFETR
Launch vehicle
Mass (kg)
RCS (m²)

Purposes: comms

External: N2YO · Heavens-Above · Gunter

§ Orbital elements

Epoch: 2026-09-21T16:31:13.976544Z

Period
91.67 min
Inclination
43.0000°
Eccentricity
0.0002173
Mean motion
15.70882692 rev/d
Perigee alt
354.9 km
Apogee alt
357.8 km
Semi-major
6,734.5 km
B*
1.3545e-3
RAAN
38.8618°
Arg perigee
321.1229°
Mean anomaly
38.9482°
Rev number
9,742

§ Raw data

STARLINK-11530 [DTC]1 62562U 25006J   26264.68835621  .00177435  00000+0  13545-2 0  99992 62562  43.0000  38.8618 0002173 321.1229  38.9482 15.70882692 97421

JSON: /api/v1/satellites/62562 · /tle

For live sub-satellite position, see the globe view (requires WebGL).

§ Visibility from observer

Set your observer location to see the next 7 days of passes ≥ 10°. The values pass through the URL so the page stays shareable.

No JS? Fill the form by hand. The geolocation button needs JavaScript.